Regional Weather Roundup
Issued by NWS Cleveland, OH

Home | Current Version | Previous Version | Graphics & Text | Print | Product List | Glossary On
Versions: 1 2 3 4 5 6 7 8 9 10 11 12 13 14 15 16 17 18 19 20 21 22 23 24 25 26 27 28 29 30 31 32 33 34 35 36 37 38 39 40 41 42 43 44 45 46 47 48 49 50
414
ASUS41 KCLE 161700
RWRCLE
OHIO REGIONAL WEATHER ROUNDUP
NATIONAL WEATHER SERVICE WILMINGTON, OH
1200 PM EST TUE JAN 16 2018

NOTE: "FAIR" INDICATES FEW OR NO CLOUDS BELOW 12,000 FEET WITH NO
SIGNIFICANT WEATHER AND/OR OBSTRUCTIONS TO VISIBILITY.

OHZ001>008-015>018-024>027-034-035-043-044-161800-
   NORTHWEST OHIO

CITY           SKY/WX    TMP DP  RH WIND       PRES   REMARKS
DEFIANCE       FAIR       3  -5  69 SW8       30.47S WCI -10
FINDLAY        FAIR       4  -5  66 SW15      30.44F WCI -14
TOLEDO EXPRESS CLOUDY     4  -1  80 SW13      30.44F WCI -13
TOLEDO EXEC    CLOUDY     5  -2  72 SW15      30.45F HAZE    WCI -13
LIMA           CLOUDY     2  -3  80 SW15      30.44F WCI -17
$$

OHZ009>014-019>023-028>033-038-089-161800-
   NORTHEAST OHIO

CITY           SKY/WX    TMP DP  RH WIND       PRES   REMARKS
CLE-HOPKINS    PTSUNNY   11   2  67 SW8       30.44F WCI  -1
CLE-LAKEFRONT  PTSUNNY   12   2  64 SW10      30.43F WCI  -1
CUY CO. ARPT   NOT AVBL
LORAIN-ELYRIA  CLOUDY     9   0  67 SW15      30.42F WCI  -8
ASHTABULA      LGT SNOW  16  12  84 CALM      30.37F FOG
AKRON-CANTON   PTSUNNY    8   0  69 SW14      30.39S WCI  -8
WOOSTER        NOT AVBL
MANSFIELD      FAIR       7   0  73 SW13      30.39F WCI  -9
YOUNGSTOWN     LGT SNOW  19  13  77 W9        30.35F WCI   8
$$

OHZ042-051>053-060>062-070>072-077>081-161800-
  SOUTHWEST OHIO

CITY           SKY/WX    TMP DP  RH WIND       PRES   REMARKS
CINC-COVINGTON FAIR       7  -1  70 W13       30.51S WCI  -9
CINC-LUNKEN    FAIR       9   1  70 W8        30.57F WCI  -3
HAMILTON       FAIR       9  -1  64 W8        30.56S WCI  -3
DAYTON         NOT AVBL
WRIGHT-PAT AFB FAIR       6  -5  60 SW13      30.49F WCI -10
DAYTON GENERAL FAIR       5  -2  72 W8        30.49F WCI  -8
WILMINGTON     FAIR       7   1  76 W10       30.47F WCI  -8
$$

OHZ036-037-039>041-045>050-054>059-063>069-073>076-082>088-161800-
  CENTRAL AND SOUTHEAST OHIO

CITY           SKY/WX    TMP DP  RH WIND       PRES   REMARKS
COLUMBUS       CLOUDY     8   0  69 W8        30.48F WCI  -4
OSU AIRPORT    FAIR       6  -1  73 W12       30.47F WCI  -9
BOLTON FIELD   MOSUNNY    7   0  72 W7        30.48F WCI  -5
RICKENBACK AFB NOT AVBL
NEWARK         FAIR       9   1  70 W12       30.46F WCI  -6
MARION         FAIR       5  -2  72 SW8       30.44F WCI  -8
LANCASTER      LGT SNOW   9   1  70 W8        30.48F WCI  -3
ZANESVILLE     LGT SNOW  13   7  77 W8        30.44F VSB 1   WCI   2
NEW PHILLY     LGT SNOW  12   5  73 W6        30.44F WCI   3
$$




USA.gov is the U.S. government's official web portal to all federal, state and local government web resources and services.